Time,TemperatureF,DewpointF,PressureIn,WindDirection,WindDirectionDegrees,WindSpeedMPH,WindSpeedGustMPH,Humidity,HourlyPrecipIn,Conditions,Clouds,dailyrainin,SolarRadiationWatts/m^2,SoftwareType,DateUTC
2013-12-14 00:00:00,27.0,24.7,30.37,SSW,209,0.0,0.0,91,0.00,,,0.01,0,Wunderground v.1.15,2013-12-14 07:00:00,
2013-12-14 00:10:00,27.2,24.9,30.37,SSW,209,0.0,0.0,91,0.00,,,0.00,0,Wunderground v.1.15,2013-12-14 07:10:00,
2013-12-14 00:20:00,27.6,25.3,30.37,SSW,209,0.0,0.0,91,0.00,,,0.00,0,Wunderground v.1.15,2013-12-14 07:20:00,
2013-12-14 00:30:00,27.4,24.9,30.37,SSW,209,0.0,0.0,90,0.00,,,0.00,0,Wunderground v.1.15,2013-12-14 07:30:00,
2013-12-14 00:40:00,27.3,24.8,30.36,SSW,209,0.0,0.0,90,0.00,,,0.00,0,Wunderground v.1.15,2013-12-14 07:40:00,
2013-12-14 00:50:00,27.5,25.0,30.35,SSW,209,0.0,0.0,90,0.00,,,0.00,0,Wunderground v.1.15,2013-12-14 07:50:00,
2013-12-14 01:00:00,27.4,24.9,30.35,SSW,209,0.0,0.0,90,0.00,,,0.00,0,Wunderground v.1.15,2013-12-14 08:00:00,
2013-12-14 01:10:00,27.1,24.8,30.36,SSW,199,0.0,0.0,91,0.00,,,0.00,0,Wunderground v.1.15,2013-12-14 08:10:00,
2013-12-14 01:20:00,26.7,24.2,30.36,SSW,199,0.0,0.0,90,0.00,,,0.00,0,Wunderground v.1.15,2013-12-14 08:20:00,
2013-12-14 01:30:00,27.0,24.5,30.36,SSW,199,0.0,0.0,90,0.00,,,0.00,0,Wunderground v.1.15,2013-12-14 08:30:00,
2013-12-14 01:40:00,26.8,24.3,30.37,SSW,199,0.0,0.0,90,0.00,,,0.00,0,Wunderground v.1.15,2013-12-14 08:40:00,
2013-12-14 01:50:00,26.3,23.8,30.36,South,186,1.0,1.0,90,0.00,,,0.00,0,Wunderground v.1.15,2013-12-14 08:50:00,
2013-12-14 02:00:00,26.1,23.6,30.36,South,186,0.0,0.0,90,0.00,,,0.00,0,Wunderground v.1.15,2013-12-14 09:00:00,
2013-12-14 02:10:00,26.1,23.6,30.35,South,186,0.0,0.0,90,0.00,,,0.00,0,Wunderground v.1.15,2013-12-14 09:10:00,
2013-12-14 02:20:00,25.8,23.5,30.36,South,186,0.0,0.0,91,0.00,,,0.00,0,Wunderground v.1.15,2013-12-14 09:20:00,
2013-12-14 02:30:00,25.1,22.6,30.36,South,186,0.0,0.0,90,0.00,,,0.00,0,Wunderground v.1.15,2013-12-14 09:30:00,
2013-12-14 02:40:00,24.5,22.0,30.37,South,186,0.0,0.0,90,0.00,,,0.00,0,Wunderground v.1.15,2013-12-14 09:40:00,
2013-12-14 02:50:00,23.9,21.4,30.37,South,186,0.0,0.0,90,0.00,,,0.00,0,Wunderground v.1.15,2013-12-14 09:50:00,
2013-12-14 03:00:00,22.9,20.4,30.37,South,179,1.0,3.0,90,0.00,,,0.00,0,Wunderground v.1.15,2013-12-14 10:00:00,
2013-12-14 03:10:00,22.0,19.5,30.37,South,177,1.0,1.0,90,0.00,,,0.00,0,Wunderground v.1.15,2013-12-14 10:10:00,
2013-12-14 03:20:00,21.7,19.2,30.37,South,177,0.0,0.0,90,0.00,,,0.00,0,Wunderground v.1.15,2013-12-14 10:20:00,
2013-12-14 03:30:00,21.3,18.8,30.37,South,178,0.0,0.0,90,0.00,,,0.00,0,Wunderground v.1.15,2013-12-14 10:30:00,
2013-12-14 03:40:00,21.1,18.6,30.36,South,178,0.0,0.0,90,0.00,,,0.00,0,Wunderground v.1.15,2013-12-14 10:40:00,
2013-12-14 03:50:00,20.4,17.9,30.36,South,176,0.0,0.0,90,0.00,,,0.00,0,Wunderground v.1.15,2013-12-14 10:50:00,
2013-12-14 04:00:00,19.7,17.2,30.36,South,172,2.0,2.0,90,0.00,,,0.00,0,Wunderground v.1.15,2013-12-14 11:00:00,
2013-12-14 04:10:00,19.9,17.4,30.37,SE,128,4.0,5.0,90,0.00,,,0.00,0,Wunderground v.1.15,2013-12-14 11:10:00,
2013-12-14 04:20:00,21.5,19.0,30.36,SSW,195,2.0,6.0,90,0.00,,,0.00,0,Wunderground v.1.15,2013-12-14 11:20:00,
2013-12-14 04:30:00,22.2,20.0,30.36,SSW,210,2.0,2.0,91,0.00,,,0.00,0,Wunderground v.1.15,2013-12-14 11:30:00,
2013-12-14 04:40:00,22.9,20.7,30.38,SSW,210,0.0,0.0,91,0.00,,,0.00,0,Wunderground v.1.15,2013-12-14 11:40:00,
2013-12-14 04:50:00,22.9,20.4,30.36,SSW,211,0.0,0.0,90,0.00,,,0.00,0,Wunderground v.1.15,2013-12-14 11:50:00,
2013-12-14 09:40:00,20.9,18.4,30.38,West,267,0.0,0.0,90,0.00,,,0.00,76,Wunderground v.1.15,2013-12-14 16:40:00,
2013-12-14 09:50:00,21.6,19.1,30.38,West,267,0.0,0.0,90,0.00,,,0.00,79,Wunderground v.1.15,2013-12-14 16:50:00,
2013-12-14 10:00:00,22.2,19.7,30.38,West,267,0.0,0.0,90,0.00,,,0.00,77,Wunderground v.1.15,2013-12-14 17:00:00,
2013-12-14 10:10:00,23.0,20.5,30.39,West,267,0.0,0.0,90,0.00,,,0.00,62,Wunderground v.1.15,2013-12-14 17:10:00,
2013-12-14 10:20:00,23.9,21.4,30.38,West,267,0.0,0.0,90,0.00,,,0.00,202,Wunderground v.1.15,2013-12-14 17:20:00,
2013-12-14 14:30:00,33.7,26.9,30.34,East,83,0.0,0.0,76,0.00,,,0.00,44,Wunderground v.1.15,2013-12-14 21:30:00,
2013-12-14 14:40:00,34.4,27.3,30.34,East,83,0.0,0.0,75,0.00,,,0.00,53,Wunderground v.1.15,2013-12-14 21:40:00,
2013-12-14 14:50:00,34.3,27.2,30.34,East,83,0.0,0.0,75,0.00,,,0.00,49,Wunderground v.1.15,2013-12-14 21:50:00,
2013-12-14 15:00:00,34.0,27.2,30.34,NE,52,0.0,0.0,76,0.00,,,0.00,39,Wunderground v.1.15,2013-12-14 22:00:00,
2013-12-14 15:10:00,33.8,27.0,30.34,ESE,105,0.0,0.0,76,0.00,,,0.00,40,Wunderground v.1.15,2013-12-14 22:10:00,
2013-12-14 15:20:00,33.6,27.2,30.34,SE,142,0.0,0.0,77,0.00,,,0.00,65,Wunderground v.1.15,2013-12-14 22:20:00,
2013-12-14 15:30:00,33.8,27.0,30.34,SSE,167,1.0,1.0,76,0.00,,,0.00,63,Wunderground v.1.15,2013-12-14 22:30:00,
2013-12-14 15:40:00,34.1,27.3,30.35,SSE,167,0.0,0.0,76,0.00,,,0.00,47,Wunderground v.1.15,2013-12-14 22:40:00,
2013-12-14 15:50:00,34.2,27.7,30.35,SSE,167,0.0,0.0,77,0.00,,,0.00,47,Wunderground v.1.15,2013-12-14 22:50:00,
2013-12-14 16:00:00,34.1,27.6,30.35,SSE,167,0.0,0.0,77,0.00,,,0.00,40,Wunderground v.1.15,2013-12-14 23:00:00,
2013-12-14 16:10:00,34.1,28.0,30.34,SSE,167,0.0,0.0,78,0.00,,,0.00,26,Wunderground v.1.15,2013-12-14 23:10:00,
2013-12-14 16:20:00,33.9,27.8,30.32,SSE,167,1.0,1.0,78,0.00,,,0.00,12,Wunderground v.1.15,2013-12-14 23:20:00,
2013-12-14 16:30:00,33.8,27.7,30.32,SSE,167,0.0,0.0,78,0.00,,,0.00,7,Wunderground v.1.15,2013-12-14 23:30:00,
2013-12-14 16:40:00,33.7,27.9,30.31,North,10,1.0,8.0,79,0.00,,,0.00,0,Wunderground v.1.15,2013-12-14 23:40:00,
2013-12-14 16:50:00,33.4,27.6,30.33,NE,44,4.0,4.0,79,0.00,,,0.00,0,Wunderground v.1.15,2013-12-14 23:50:00,
2013-12-14 17:00:00,33.7,27.6,30.33,NNW,331,3.0,3.0,78,0.00,,,0.00,0,Wunderground v.1.15,2013-12-15 00:00:00,
2013-12-14 17:10:00,33.4,27.6,30.33,NNW,346,0.0,0.0,79,0.00,,,0.00,0,Wunderground v.1.15,2013-12-15 00:10:00,
2013-12-14 17:20:00,33.3,27.5,30.32,NNW,346,1.0,1.0,79,0.00,,,0.00,0,Wunderground v.1.15,2013-12-15 00:20:00,
2013-12-14 17:30:00,33.5,28.0,30.32,NNW,347,0.0,0.0,80,0.00,,,0.00,0,Wunderground v.1.15,2013-12-15 00:30:00,
2013-12-14 17:40:00,33.7,27.9,30.31,NW,307,1.0,1.0,79,0.00,,,0.00,0,Wunderground v.1.15,2013-12-15 00:40:00,
2013-12-14 17:50:00,34.3,28.5,30.31,NW,307,0.0,0.0,79,0.00,,,0.00,0,Wunderground v.1.15,2013-12-15 00:50:00,
2013-12-14 18:00:00,34.4,28.6,30.31,NW,307,0.0,0.0,79,0.00,,,0.00,0,Wunderground v.1.15,2013-12-15 01:00:00,
2013-12-14 18:10:00,34.2,28.4,30.31,NW,307,0.0,0.0,79,0.00,,,0.00,0,Wunderground v.1.15,2013-12-15 01:10:00,
2013-12-14 18:20:00,33.7,27.9,30.29,NNE,25,0.0,0.0,79,0.00,,,0.00,0,Wunderground v.1.15,2013-12-15 01:20:00,
2013-12-14 18:30:00,33.7,28.2,30.29,SE,144,0.0,0.0,80,0.00,,,0.00,0,Wunderground v.1.15,2013-12-15 01:30:00,
2013-12-14 18:40:00,33.6,28.1,30.30,SE,144,0.0,0.0,80,0.00,,,0.00,0,Wunderground v.1.15,2013-12-15 01:40:00,
2013-12-14 18:50:00,33.4,27.9,30.30,WNW,287,1.0,1.0,80,0.00,,,0.00,0,Wunderground v.1.15,2013-12-15 01:50:00,
2013-12-14 19:00:00,33.3,28.1,30.30,WNW,288,0.0,0.0,81,0.00,,,0.00,0,Wunderground v.1.15,2013-12-15 02:00:00,
2013-12-14 19:10:00,33.2,28.0,30.29,WNW,292,0.0,0.0,81,0.00,,,0.00,0,Wunderground v.1.15,2013-12-15 02:10:00,
2013-12-14 19:20:00,33.3,28.4,30.28,East,83,0.0,0.0,82,0.00,,,0.00,0,Wunderground v.1.15,2013-12-15 02:20:00,
2013-12-14 19:30:00,34.1,28.9,30.28,ESE,121,0.0,0.0,81,0.00,,,0.00,0,Wunderground v.1.15,2013-12-15 02:30:00,
2013-12-14 19:40:00,34.0,28.8,30.28,ESE,121,0.0,0.0,81,0.00,,,0.00,0,Wunderground v.1.15,2013-12-15 02:40:00,
2013-12-14 19:50:00,34.0,28.5,30.28,WNW,292,1.0,1.0,80,0.00,,,0.00,0,Wunderground v.1.15,2013-12-15 02:50:00,
2013-12-14 20:00:00,33.5,28.0,30.28,WNW,292,0.0,0.0,80,0.00,,,0.00,0,Wunderground v.1.15,2013-12-15 03:00:00,
2013-12-14 20:10:00,32.3,26.8,30.26,WSW,244,1.0,7.0,80,0.00,,,0.00,0,Wunderground v.1.15,2013-12-15 03:10:00,
2013-12-14 20:20:00,33.1,27.9,30.25,SW,229,1.0,1.0,81,0.00,,,0.00,0,Wunderground v.1.15,2013-12-15 03:20:00,
2013-12-14 20:30:00,32.2,26.7,30.25,NNW,327,1.0,1.0,80,0.00,,,0.00,0,Wunderground v.1.15,2013-12-15 03:30:00,
2013-12-14 20:40:00,31.5,26.3,30.25,NNW,342,1.0,1.0,81,0.00,,,0.00,0,Wunderground v.1.15,2013-12-15 03:40:00,
2013-12-14 20:50:00,31.1,26.0,30.23,NNW,343,0.0,0.0,81,0.00,,,0.00,0,Wunderground v.1.15,2013-12-15 03:50:00,
2013-12-14 21:00:00,30.3,25.2,30.23,NNW,342,0.0,0.0,81,0.00,,,0.00,0,Wunderground v.1.15,2013-12-15 04:00:00,
2013-12-14 21:10:00,29.8,25.0,30.22,SSW,199,1.0,1.0,82,0.00,,,0.00,0,Wunderground v.1.15,2013-12-15 04:10:00,
2013-12-14 21:20:00,28.8,24.3,30.21,South,174,1.0,1.0,83,0.00,,,0.00,0,Wunderground v.1.15,2013-12-15 04:20:00,
2013-12-14 21:30:00,28.5,24.3,30.21,South,174,0.0,0.0,84,0.00,,,0.00,0,Wunderground v.1.15,2013-12-15 04:30:00,
2013-12-14 21:40:00,27.9,24.0,30.21,NW,314,0.0,0.0,85,0.00,,,0.00,0,Wunderground v.1.15,2013-12-15 04:40:00,
2013-12-14 21:50:00,27.3,23.4,30.20,WNW,295,0.0,3.0,85,0.00,,,0.00,0,Wunderground v.1.15,2013-12-15 04:50:00,
2013-12-14 22:00:00,26.7,22.8,30.20,NW,324,0.0,3.0,85,0.00,,,0.00,0,Wunderground v.1.15,2013-12-15 05:00:00,
2013-12-14 22:10:00,26.2,22.6,30.21,NW,324,1.0,1.0,86,0.00,,,0.00,0,Wunderground v.1.15,2013-12-15 05:10:00,
2013-12-14 22:20:00,26.0,22.4,30.22,NW,325,0.0,0.0,86,0.00,,,0.00,0,Wunderground v.1.15,2013-12-15 05:20:00,
2013-12-14 22:30:00,25.6,22.0,30.22,NW,306,0.0,0.0,86,0.00,,,0.00,0,Wunderground v.1.15,2013-12-15 05:30:00,
2013-12-14 22:40:00,24.5,20.9,30.22,NW,306,0.0,0.0,86,0.00,,,0.00,0,Wunderground v.1.15,2013-12-15 05:40:00,
2013-12-14 22:50:00,24.6,21.3,30.23,NW,307,0.0,0.0,87,0.00,,,0.00,0,Wunderground v.1.15,2013-12-15 05:50:00,
2013-12-14 23:00:00,24.2,20.9,30.23,NW,326,0.0,0.0,87,0.00,,,0.00,0,Wunderground v.1.15,2013-12-15 06:00:00,